Weather History for Key West, FL

Change the Weather History Date:

Saturday, January 5, 2013

  Actual Average Record
Temperature  
Mean Temperature 75 °F 69 °F  
Max Temperature 79 °F 74 °F 84 °F (1942)
Min Temperature 70 °F 64 °F 46 °F (2001)
Degree Days  
Heating Degree Days 0 1  
Month to date heating degree days 0 5  
Since 1 July heating degree days 4 23  
Cooling Degree Days 10 5  
Month to date cooling degree days 51 27  
Year to date cooling degree days 51 27  
Growing Degree Days 24 (Base 50)    
Moisture  
Dew Point 71 °F    
Average Humidity 87    
Maximum Humidity 100    
Minimum Humidity 74    
Precipitation  
Precipitation T in 0.05 in 2.60 in (1906)
Month to date precipitation T 0.29  
Year to date precipitation T 0.29  
Snow  
Snow 0.00 in - - ()
Month to date snowfall 0.0  
Since 1 July snowfall 0.0  
Snow Depth 0.00 in    
Sea Level Pressure  
Sea Level Pressure 30.18 in    
Wind  
Wind Speed 8 mph (NE)    
Max Wind Speed 15 mph    
Max Gust Speed 20 mph    
Visibility 9 miles    
Events Fog , Rain    
T = Trace of Precipitation, MM = Missing Value Source: NWS Daily Summary

Daily Weather History Graph

Daily Weather History Graph

Search for Another Location

Airport:

Trip Planner

Search our weather history database for the weather conditions in past years. The results will help you decide how hot, cold, wet, or windy it might be!

Date:

Astronomy

Jan. 05, 2013 Rise Set
Actual Time 7:12 AM EST 5:53 PM EST
Civil Twilight 6:47 AM EST 6:17 PM EST
Nautical Twilight 6:19 AM EST 6:46 PM EST
Astronomical Twilight 5:51 AM EST 7:13 PM EST
Moon 12:39 AM EST (1/5) 12:23 PM EST (1/5)
Length of Visible Light 11h 30m
Length of Day
10h 40m
Last Quarter, 44% of the Moon is Illuminated
Jan 5
Last Quarter
Jan 11
New
Jan 18
First Quarter
Jan 26
Full
Feb 3
Last Quarter

Hourly Weather History & Observations

Time (EST) Temp. Dew Point Humidity Pressure Visibility Wind Dir Wind Speed Gust Speed Precip Events Conditions
12:26 AM 69.8 °F 69.8 °F 100% 30.20 in 10.0 mi North 11.5 mph - N/A   Mostly Cloudy
12:34 AM 69.8 °F 69.8 °F 100% 30.20 in 10.0 mi North 9.2 mph - N/A   Scattered Clouds
12:53 AM 71.1 °F 69.1 °F 93% 30.20 in 10.0 mi NNE 8.1 mph - N/A   Clear
1:53 AM 71.1 °F 69.1 °F 93% 30.18 in 10.0 mi NE 4.6 mph - N/A   Clear
2:53 AM 71.1 °F 69.1 °F 93% 30.17 in 10.0 mi NNE 3.5 mph - N/A   Clear
3:53 AM 71.1 °F 69.1 °F 93% 30.17 in 10.0 mi NE 3.5 mph - N/A   Clear
4:53 AM 71.1 °F 70.0 °F 96% 30.16 in 10.0 mi ENE 3.5 mph - N/A   Clear
5:36 AM 71.6 °F 69.8 °F 94% 30.17 in 10.0 mi NE 4.6 mph - N/A   Scattered Clouds
5:53 AM 72.0 °F 70.0 °F 93% 30.17 in 10.0 mi NE 3.5 mph - N/A   Mostly Cloudy
6:09 AM 71.6 °F 71.6 °F 100% 30.17 in 10.0 mi East 4.6 mph - N/A   Partly Cloudy
6:53 AM 72.0 °F 71.1 °F 97% 30.18 in 10.0 mi East 5.8 mph - N/A   Clear
7:53 AM 73.9 °F 71.1 °F 91% 30.19 in 10.0 mi NE 3.5 mph - N/A   Clear
8:53 AM 75.0 °F 71.1 °F 87% 30.21 in 10.0 mi NNE 6.9 mph - N/A   Mostly Cloudy
9:02 AM 73.4 °F 71.6 °F 94% 30.21 in 9.0 mi NNE 9.2 mph - N/A   Mostly Cloudy
9:21 AM 73.4 °F 71.6 °F 94% 30.22 in 7.0 mi NNE 6.9 mph - N/A   Overcast
9:38 AM 73.4 °F 71.6 °F 94% 30.22 in 0.5 mi NNE 8.1 mph - N/A Fog Fog
9:53 AM 72.0 °F 71.1 °F 97% 30.22 in 0.5 mi NE 10.4 mph 16.1 mph N/A Fog Fog
10:00 AM 73.4 °F 71.6 °F 94% 30.22 in 5.0 mi NNE 8.1 mph - N/A   Overcast
10:53 AM 73.9 °F 71.1 °F 91% 30.21 in 7.0 mi NE 10.4 mph - N/A   Overcast
11:53 AM 73.0 °F 71.1 °F 93% 30.20 in 7.0 mi NNE 10.4 mph - 0.00 in   Overcast
12:48 PM 75.2 °F 71.6 °F 89% 30.17 in 8.0 mi NE 10.4 mph - N/A   Overcast
12:53 PM 75.0 °F 71.1 °F 87% 30.17 in 8.0 mi NE 8.1 mph - N/A   Overcast
1:26 PM 75.2 °F 71.6 °F 89% 30.15 in 9.0 mi ENE 8.1 mph - 0.00 in Rain Light Rain
1:53 PM 75.0 °F 71.1 °F 87% 30.15 in 9.0 mi NE 9.2 mph - 0.00 in Rain Light Rain
2:30 PM 78.8 °F 71.6 °F 78% 30.13 in 10.0 mi ENE 8.1 mph - N/A   Mostly Cloudy
2:53 PM 78.1 °F 72.0 °F 81% 30.13 in 10.0 mi ENE 8.1 mph - N/A   Scattered Clouds
3:04 PM 78.8 °F 71.6 °F 78% 30.13 in 10.0 mi East 5.8 mph - N/A   Mostly Cloudy
3:17 PM 78.8 °F 71.6 °F 78% 30.13 in 10.0 mi East 10.4 mph 18.4 mph N/A   Scattered Clouds
3:53 PM 79.0 °F 70.0 °F 74% 30.14 in 10.0 mi East 13.8 mph - N/A   Clear
4:53 PM 77.0 °F 70.0 °F 79% 30.14 in 10.0 mi East 10.4 mph - N/A   Scattered Clouds
5:53 PM 75.9 °F 70.0 °F 82% 30.15 in 10.0 mi East 10.4 mph - N/A   Clear
6:53 PM 75.0 °F 70.0 °F 84% 30.17 in 10.0 mi East 6.9 mph - N/A   Mostly Cloudy
7:53 PM 75.0 °F 70.0 °F 84% 30.18 in 10.0 mi East 9.2 mph - N/A   Clear
8:53 PM 73.9 °F 71.1 °F 91% 30.19 in 10.0 mi East 8.1 mph - N/A   Mostly Cloudy
9:53 PM 75.0 °F 71.1 °F 87% 30.20 in 10.0 mi East 8.1 mph - N/A   Mostly Cloudy
10:53 PM 73.9 °F 71.1 °F 91% 30.19 in 10.0 mi ENE 9.2 mph - N/A   Clear
11:53 PM 73.9 °F 71.1 °F 91% 30.17 in 10.0 mi East 9.2 mph - N/A   Scattered Clouds